Location: La Chapelle
(48.3135°N, 1.3085°W)
Time: 07:40:36
(UTC+00:00)

Cosmos 2369 Rocket - Pass Details

Date: 03 March 2021
Orbit: 829 x 852 km, 71.0° (Epoch: 12 April)

Event Time Altitude Azimuth Distance (km) Brightness Sun altitude
Rises 21:28:03 0° 336° (NNW) 3,384 6.1 -35.0°
Reaches altitude 10° 21:30:52 10° 349° (NNW) 2,448 5.1 -35.4°
Enters shadow 21:32:57 19° 6° (N) 1,881 4.2 -35.6°
